CAPE
12 44 15 8 2 3 16 0 0 0 0 0 0 0 0 0 0 45 0 0 17 6 0 0 0 0 15 26 39 37 13 0 0 0 0 0 0 0
54 14 13 2 0 0 0 0 0 0 0 0 0 0 0 0 1 2 0 0 0 12 7 16 10 12 21 42 46 43 34 18 8 0 0 0 0 0
140 80 30 17 9 19 8 1 9 10 4 26 2 0 0 0 0 13 2 0 1 1 12 24 18 18 28 22 18 21 29 26 18 18 16 0 0 0
26 172 170 41 80 38 8 24 8 2 8 10 30 28 26 30 2 13 10 0 0 16 12 23 13 0 0 0 0 0 0 0 0 0 5 11 15 2
156 101 83 106 43 69 16 24 61 129 77 63 77 50 47 55 30 16 0 0 0 8 9 18 0 0 0 0 0 0 0 0 0 0 0 0 0 0
54 167 196 86 36 12 35 163 120 100 85 46 40 34 34 35 29 13 1 0 0 0 0 0 0 0 0 0 0 0 0 0 0 0 0 0 0 0
166 181 217 245 284 122 29 128 45 61 58 29 27 14 11 22 7 15 12 1 0 0 0 0 0 0 0 0 0 0 0 0 0 0 0 0 0 0
298 240 172 198 191 93 228 128 99 79 68 21 6 2 2 7 0 0 15 14 0 0 0 0 0 0 0 0 0 0 0 0 0 0 0 0 0 0
885 497 335 233 260 221 273 133 53 90 74 6 3 0 31 55 0 12 28 24 0 0 2 0 0 0 0 0 0 0 0 0 0 0 0 0 0 0
1380 990 520 300 430 363 143 124 48 61 82 51 25 8 60 70 101 98 78 54 34 40 15 7 3 0 0 0 0 0 0 0 0 0 0 0 0 0
1379 930 454 514 494 230 146 37 94 104 114 95 104 102 100 91 51 40 70 76 8 0 0 8 0 0 0 0 0 0 0 0 0 0 0 0 0 0
799 648 426 479 511 235 83 18 72 75 59 98 88 35 36 31 17 0 0 0 1 0 0 0 0 0 0 0 0 0 0 0 0 0 0 0 0 0
795 248 65 160 163 52 17 73 89 101 143 121 58 4 0 0 0 0 0 0 0 0 0 0 0 0 0 0 0 0 0 0 0 0 0 0 0 0
84 61 52 89 28 43 63 113 101 113 146 96 18 0 0 0 0 0 0 3 3 2 0 0 0 0 0 0 0 0 0 0 0 0 0 0 0 0
212 338 86 28 53 115 160 161 134 149 104 21 0 0 0 0 0 0 0 0 0 0 0 0 0 0 0 0 15 2 2 0 0 0 0 0 0 0
282 267 120 43 35 6 9 6 58 39 2 0 0 0 5 13 0 0 0 0 0 0 0 0 0 0 0 0 7 8 0 1 0 0 0 0 0 0
483 319 103 2 7 0 0 0 9 0 0 4 8 1 4 0 0 0 0 0 0 0 0 0 0 0 0 0 5 0 0 0 0 0 3 0 0 0
181 115 1 0 0 0 0 0 0 30 18 10 0 0 0 0 0 0 0 0 0 0 0 0 0 0 0 0 0 0 0 0 0 3 0 0 0 0
0 0 0 0 8 0 0 1 1 15 41 22 40 24 3 0 0 0 0 0 0 0 0 0 0 0 0 0 0 0 0 0 0 0 0 0 0 0
0 0 0 0 0 0 0 0 0 0 0 0 13 2 0 0 0 0 0 0 0 0 0 0 0 0 0 0 0 0 0 0 0 0 0 0 0 0
0 0 0 0 0 0 0 0 0 0 0 0 0 0 0 0 0 0 0 0 0 0 0 0 0 0 5 0 0 0 0 0 0 0 0 0 0 0
0 0 0 0 0 0 0 0 0 0 0 0 0 0 0 0 0 0 0 0 0 0 0 0 0 0 0 0 0 0 0 0 0 0 0 0 0 0
0 0 0 0 0 0 0 0 0 0 0 0 0 0 0 0 0 0 0 0 0 0 0 0 0 3 0 0 0 0 0 0 0 0 0 0 0 6
CIN
-287 -191 -223 -142 -157 -169 -154 -4 -0 -0 -0 -0 -0 -0 -6 -0 -0 -152 -0 -0 -178 -191 -0 -0 -0 -0 -125 -104 -88 -76 -72 -0 -0 -0 -0 -0 -0 -0
-256 -253 -265 -209 -0 -0 -87 -0 -0 -0 -0 -0 -0 -0 -0 -0 -32 -25 -0 -0 -0 -164 -147 -91 -67 -187 -161 -142 -136 -124 -113 -106 -79 -0 -0 -0 -0 -0
-212 -187 -204 -190 -162 -111 -133 -38 -84 -111 -61 -33 -10 -0 -0 -0 -0 -22 -14 -0 -26 -7 -68 -143 -103 -60 -37 -109 -177 -172 -158 -149 -138 -132 -114 -0 -0 -0
-281 -178 -133 -193 -142 -89 -74 -85 -42 -74 -80 -39 -55 -35 -31 -29 -34 -98 -80 -0 -0 -42 -48 -20 -13 -3 -0 -0 -0 -0 -0 -0 -0 -0 -152 -123 -101 -19
-226 -163 -142 -112 -181 -135 -83 -87 -70 -116 -16 -11 -12 -43 -32 -34 -29 -7 -1 -0 -0 -90 -93 -24 -0 -0 -0 -0 -0 -0 -0 -0 -0 -0 -0 -0 -0 -0
-321 -180 -81 -91 -144 -112 -156 -63 -72 -28 -17 -25 -38 -38 -47 -16 -14 -23 -10 -0 -0 -0 -0 -0 -0 -0 -0 -0 -0 -0 -0 -0 -0 -0 -0 -0 -0 -0
-230 -172 -90 -66 -39 -45 -95 -40 -43 -36 -28 -0 -47 -63 -55 -49 -21 -18 -16 -31 -0 -0 -0 -0 -0 -0 -0 -0 -0 -0 -0 -0 -0 -0 -0 -0 -0 -0
-81 -57 -73 -61 -54 -55 -78 -48 -65 -21 -8 -3 -0 -0 -0 -46 -0 -0 -11 -19 -0 -0 -0 -0 -0 -0 -0 -0 -0 -0 -0 -0 -0 -0 -0 -0 -0 -0
-16 -29 -20 -72 -40 -38 -25 -15 -76 -63 -29 -10 -20 -0 -31 -18 -0 -16 -21 -11 -0 -0 -4 -0 -0 -0 -0 -0 -0 -0 -0 -0 -0 -0 -0 -0 -0 -0
-0 -1 -10 -66 -24 -13 -29 -21 -95 -82 -65 -41 -88 -52 -18 -31 -9 -14 -14 -14 -18 -17 -14 -7 -8 -0 -0 -0 -0 -0 -0 -0 -0 -0 -0 -0 -0 -0
-0 -5 -44 -24 -25 -16 -17 -61 -88 -52 -35 -55 -37 -39 -42 -33 -58 -50 -36 -19 -12 -0 -0 -18 -0 -0 -0 -0 -0 -0 -0 -0 -0 -0 -0 -0 -0 -0
-41 -41 -40 -26 -11 -4 -36 -60 -65 -43 -48 -46 -52 -60 -55 -48 -38 -0 -0 -0 -7 -0 -0 -0 -0 -0 -0 -0 -0 -0 -0 -0 -0 -0 -0 -0 -0 -0
-37 -80 -97 -33 -20 -38 -43 -89 -68 -40 -47 -53 -60 -22 -0 -0 -0 -0 -0 -0 -0 -0 -0 -0 -0 -0 -0 -0 -0 -0 -0 -0 -0 -0 -0 -0 -0 -0
-107 -72 -63 -28 -64 -61 -92 -54 -61 -55 -28 -33 -63 -0 -0 -0 -0 -0 -0 -0 -0 -79 -0 -0 -0 -0 -0 -0 -0 -0 -0 -0 -0 -0 -0 -0 -0 -0
-52 -13 -19 -77 -61 -52 -35 -51 -30 -44 -44 -55 -0 -0 -0 -3 -3 -0 -0 -0 -0 -0 -0 -0 -0 -0 -0 -0 -14 -5 -6 -0 -0 -0 -0 -0 -0 -0
-24 -16 -22 -58 -80 -34 -25 -85 -78 -47 -17 -0 -1 -1 -53 -35 -0 -0 -0 -0 -0 -0 -0 -0 -0 -0 -0 -0 -26 -18 -0 -33 -0 -0 -0 -0 -0 -0
-0 -1 -23 -50 -39 -0 -0 -0 -44 -0 -0 -14 -17 -23 -43 -1 -0 -0 -0 -0 -0 -0 -0 -0 -0 -0 -0 -1 -30 -0 -0 -0 -0 -0 -0 -0 -0 -0
-16 -31 -5 -0 -0 -0 -0 -0 -1 -17 -13 -14 -4 -0 -0 -0 -0 -0 -0 -0 -0 -0 -0 -0 -0 -0 -0 -0 -0 -0 -0 -0 -0 -0 -0 -0 -0 -0
-0 -0 -0 -0 -33 -0 -0 -1 -1 -34 -59 -109 -62 -10 -7 -0 -0 -0 -0 -0 -0 -0 -0 -0 -0 -0 -0 -0 -0 -0 -0 -0 -0 -0 -0 -0 -0 -0
-0 -0 -0 -0 -0 -0 -0 -0 -0 -0 -0 -0 -7 -2 -0 -0 -0 -0 -0 -0 -0 -0 -0 -0 -0 -0 -0 -0 -0 -0 -0 -0 -0 -0 -0 -0 -0 -0
-0 -0 -0 -0 -0 -0 -0 -0 -0 -0 -0 -0 -0 -0 -0 -0 -0 -0 -0 -0 -0 -0 -0 -0 -0 -0 -61 -0 -0 -0 -0 -0 -0 -0 -0 -0 -0 -0
-0 -0 -0 -0 -0 -0 -0 -0 -0 -0 -0 -0 -0 -0 -0 -0 -0 -0 -0 -0 -0 -0 -0 -0 -0 -0 -0 -0 -0 -0 -0 -0 -0 -0 -0 -0 -0 -0
-0 -0 -0 -0 -0 -0 -0 -0 -0 -0 -0 -0 -0 -0 -0 -0 -0 -0 -0 -0 -0 -0 -0 -0 -0 -24 -0 -0 -0 -0 -0 -0 -0 -0 -0 -0 -0 -0
Wind_Speed
nan nan nan nan nan nan nan nan nan nan nan nan nan nan nan nan nan nan nan nan nan nan nan nan nan nan nan nan nan nan nan nan nan nan nan nan nan nan
nan nan nan nan nan nan nan nan nan nan nan nan nan nan nan nan nan nan nan nan nan nan nan nan nan nan nan nan nan nan nan nan nan nan nan nan nan nan
33 nan nan nan nan nan nan nan nan nan nan nan nan nan nan nan nan nan nan nan nan nan nan nan nan nan nan nan nan nan nan nan nan nan nan nan nan nan
nan 40 32 nan nan nan nan nan nan nan nan nan nan nan nan nan nan nan nan nan nan nan nan nan nan nan nan nan nan nan nan nan nan nan nan nan nan nan
42 38 nan 31 nan nan nan nan nan 24 nan nan nan nan nan nan nan nan nan nan nan nan nan nan nan nan nan nan nan nan nan nan nan nan nan nan nan nan
nan 42 38 nan nan nan nan 27 26 24 nan nan nan nan nan nan nan nan nan nan nan nan nan nan nan nan nan nan nan nan nan nan nan nan nan nan nan nan
43 45 41 35 33 31 nan 31 nan nan nan nan nan nan nan nan nan nan nan nan nan nan nan nan nan nan nan nan nan nan nan nan nan nan nan nan nan nan
43 42 35 33 33 nan 35 38 nan nan nan nan nan nan nan nan nan nan nan nan nan nan nan nan nan nan nan nan nan nan nan nan nan nan nan nan nan nan
44 45 35 35 36 35 37 40 nan nan nan nan nan nan nan nan nan nan nan nan nan nan nan nan nan nan nan nan nan nan nan nan nan nan nan nan nan nan
48 48 40 39 39 42 42 41 nan nan nan nan nan nan nan nan 50 nan nan nan nan nan nan nan nan nan nan nan nan nan nan nan nan nan nan nan nan nan
49 46 40 39 43 45 43 nan nan 39 38 nan 40 39 38 nan nan nan nan nan nan nan nan nan nan nan nan nan nan nan nan nan nan nan nan nan nan nan
47 42 42 43 50 48 nan nan nan nan nan nan nan nan nan nan nan nan nan nan nan nan nan nan nan nan nan nan nan nan nan nan nan nan nan nan nan nan
44 41 nan 44 43 nan nan nan nan 44 46 50 nan nan nan nan nan nan nan nan nan nan nan nan nan nan nan nan nan nan nan nan nan nan nan nan nan nan
nan nan nan nan nan nan nan 45 42 42 45 nan nan nan nan nan nan nan nan nan nan nan nan nan nan nan nan nan nan nan nan nan nan nan nan nan nan nan
46 44 nan nan nan 47 43 36 44 40 41 nan nan nan nan nan nan nan nan nan nan nan nan nan nan nan nan nan nan nan nan nan nan nan nan nan nan nan
49 48 47 nan nan nan nan nan nan nan nan nan nan nan nan nan nan nan nan nan nan nan nan nan nan nan nan nan nan nan nan nan nan nan nan nan nan nan
51 45 43 nan nan nan nan nan nan nan nan nan nan nan nan nan nan nan nan nan nan nan nan nan nan nan nan nan nan nan nan nan nan nan nan nan nan nan
47 44 nan nan nan nan nan nan nan nan nan nan nan nan nan nan nan nan nan nan nan nan nan nan nan nan nan nan nan nan nan nan nan nan nan nan nan nan
nan nan nan nan nan nan nan nan nan nan nan nan nan nan nan nan nan nan nan nan nan nan nan nan nan nan nan nan nan nan nan nan nan nan nan nan nan nan
nan nan nan nan nan nan nan nan nan nan nan nan nan nan nan nan nan nan nan nan nan nan nan nan nan nan nan nan nan nan nan nan nan nan nan nan nan nan
nan nan nan nan nan nan nan nan nan nan nan nan nan nan nan nan nan nan nan nan nan nan nan nan nan nan nan nan nan nan nan nan nan nan nan nan nan nan
nan nan nan nan nan nan nan nan nan nan nan nan nan nan nan nan nan nan nan nan nan nan nan nan nan nan nan nan nan nan nan nan nan nan nan nan nan nan
nan nan nan nan nan nan nan nan nan nan nan nan nan nan nan nan nan nan nan nan nan nan nan nan nan nan nan nan nan nan nan nan nan nan nan nan nan nan
Wind_Direction
nan nan nan nan nan nan nan nan nan nan nan nan nan nan nan nan nan nan nan nan nan nan nan nan nan nan nan nan nan nan nan nan nan nan nan nan nan nan
nan nan nan nan nan nan nan nan nan nan nan nan nan nan nan nan nan nan nan nan nan nan nan nan nan nan nan nan nan nan nan nan nan nan nan nan nan nan
353 nan nan nan nan nan nan nan nan nan nan nan nan nan nan nan nan nan nan nan nan nan nan nan nan nan nan nan nan nan nan nan nan nan nan nan nan nan
nan 347 345 nan nan nan nan nan nan nan nan nan nan nan nan nan nan nan nan nan nan nan nan nan nan nan nan nan nan nan nan nan nan nan nan nan nan nan
353 349 nan 336 nan nan nan nan nan 320 nan nan nan nan nan nan nan nan nan nan nan nan nan nan nan nan nan nan nan nan nan nan nan nan nan nan nan nan
nan 345 337 nan nan nan nan 320 314 304 nan nan nan nan nan nan nan nan nan nan nan nan nan nan nan nan nan nan nan nan nan nan nan nan nan nan nan nan
343 341 339 333 334 324 nan 312 nan nan nan nan nan nan nan nan nan nan nan nan nan nan nan nan nan nan nan nan nan nan nan nan nan nan nan nan nan nan
336 334 336 336 335 nan 319 319 nan nan nan nan nan nan nan nan nan nan nan nan nan nan nan nan nan nan nan nan nan nan nan nan nan nan nan nan nan nan
332 331 329 328 328 318 318 314 nan nan nan nan nan nan nan nan nan nan nan nan nan nan nan nan nan nan nan nan nan nan nan nan nan nan nan nan nan nan
330 332 330 328 323 320 320 319 nan nan nan nan nan nan nan nan 292 nan nan nan nan nan nan nan nan nan nan nan nan nan nan nan nan nan nan nan nan nan
324 326 325 321 322 319 316 nan nan 309 300 nan 307 305 302 nan nan nan nan nan nan nan nan nan nan nan nan nan nan nan nan nan nan nan nan nan nan nan
324 325 328 318 315 315 nan nan nan nan nan nan nan nan nan nan nan nan nan nan nan nan nan nan nan nan nan nan nan nan nan nan nan nan nan nan nan nan
325 322 nan 320 321 nan nan nan nan 301 305 304 nan nan nan nan nan nan nan nan nan nan nan nan nan nan nan nan nan nan nan nan nan nan nan nan nan nan
nan nan nan nan nan nan nan 318 315 302 301 nan nan nan nan nan nan nan nan nan nan nan nan nan nan nan nan nan nan nan nan nan nan nan nan nan nan nan
314 316 nan nan nan 314 316 310 308 302 302 nan nan nan nan nan nan nan nan nan nan nan nan nan nan nan nan nan nan nan nan nan nan nan nan nan nan nan
312 308 311 nan nan nan nan nan nan nan nan nan nan nan nan nan nan nan nan nan nan nan nan nan nan nan nan nan nan nan nan nan nan nan nan nan nan nan
308 308 311 nan nan nan nan nan nan nan nan nan nan nan nan nan nan nan nan nan nan nan nan nan nan nan nan nan nan nan nan nan nan nan nan nan nan nan
304 311 nan nan nan nan nan nan nan nan nan nan nan nan nan nan nan nan nan nan nan nan nan nan nan nan nan nan nan nan nan nan nan nan nan nan nan nan
nan nan nan nan nan nan nan nan nan nan nan nan nan nan nan nan nan nan nan nan nan nan nan nan nan nan nan nan nan nan nan nan nan nan nan nan nan nan
nan nan nan nan nan nan nan nan nan nan nan nan nan nan nan nan nan nan nan nan nan nan nan nan nan nan nan nan nan nan nan nan nan nan nan nan nan nan
nan nan nan nan nan nan nan nan nan nan nan nan nan nan nan nan nan nan nan nan nan nan nan nan nan nan nan nan nan nan nan nan nan nan nan nan nan nan
nan nan nan nan nan nan nan nan nan nan nan nan nan nan nan nan nan nan nan nan nan nan nan nan nan nan nan nan nan nan nan nan nan nan nan nan nan nan
nan nan nan nan nan nan nan nan nan nan nan nan nan nan nan nan nan nan nan nan nan nan nan nan nan nan nan nan nan nan nan nan nan nan nan nan nan nan